Location: General Nathan Twining Observatory
(34.5931°N, 106.8201°W)
Time: 02:51:41
(UTC-06:00)

Lacrosse 5 - Pass Details

Date: 20 September 2017
Orbit: 716 x 722 km, 57.0° (Epoch: 16 October)

Event Time Altitude Azimuth Distance (km) Brightness Sun altitude
Rises 19:43:23 0° 321° (NW) 3,130 5.9 -8.4°
Reaches altitude 10° 19:45:46 10° 322° (NW) 2,208 5.1 -8.9°
Maximum altitude 19:50:52 84° 50° (NE) 728 1.9 -10.0°
Drops below altitude 10° 19:55:57 10° 139° (SE) 2,199 3.9 -11.0°
Enters shadow 19:56:41 - 140° (SE) 2,482 4.2 -11.1°
